Location: Arcueil
(48.7999°N, 2.3326°E)
Time: 18:56:42
(UTC+00:00)

Cosmos 1943 Rocket - Visible Passes

Search period start: 01 October 2023 00:00
Search period end: 11 October 2023 00:00
Orbit: 810 x 845 km, 71.0° (Epoch: 01 October)

Date Brightness Start Highest point End Pass type
(mag) Time Alt. Az. Time Alt. Az. Time Alt. Az.
01 Oct 3.0 18:21:29 10° NNW 18:26:34 33° NE 18:30:50 14° ESE visible
01 Oct 2.8 20:05:05 10° NW 20:10:34 52° WSW 20:12:23 37° SSW visible
02 Oct 3.1 18:02:10 10° NNW 18:07:08 30° NE 18:12:03 10° ESE visible
02 Oct 2.6 19:45:41 10° NW 19:51:16 59° WSW 19:53:56 30° S visible
03 Oct 2.5 19:26:18 10° NNW 19:31:56 66° WSW 19:35:34 22° S visible
03 Oct 4.9 21:13:29 10° W 21:14:33 10° W 21:15:35 10° WSW visible
04 Oct 2.3 19:06:55 10° NNW 19:12:36 74° WSW 19:17:22 15° SSE visible
04 Oct 4.8 20:53:09 10° WNW 20:55:19 12° W 20:57:28 10° WSW visible
05 Oct 2.2 18:47:34 10° NNW 18:53:16 83° WSW 18:58:52 10° SSE visible
05 Oct 4.8 20:33:15 10° WNW 20:36:05 14° W 20:38:54 10° SW visible
06 Oct 2.2 18:28:13 10° NNW 18:33:54 88° NE 18:39:32 10° SSE visible
06 Oct 4.8 20:13:31 10° WNW 20:16:50 16° W 20:20:09 10° SW visible
07 Oct 2.2 18:08:51 10° NNW 18:14:33 80° ENE 18:20:11 10° SSE visible
07 Oct 4.7 19:53:51 10° WNW 19:57:36 18° W 20:01:19 10° SW visible
08 Oct 2.2 17:49:30 10° NNW 17:55:11 72° ENE 18:00:48 10° SE visible
08 Oct 4.6 19:34:15 10° NW 19:38:20 21° W 19:42:23 10° SSW visible
09 Oct 4.4 19:14:42 10° NW 19:19:04 23° WSW 19:23:25 10° SSW visible
10 Oct 4.3 18:55:11 10° NW 18:59:48 26° WSW 19:04:23 10° SSW visible
